Location: Gunn
(53.7910°N, 114.3619°W)
Time: 01:29:47
(UTC+00:00)

BlueWalker 3 - Visible Passes

Search period start: 29 May 2023 00:00
Search period end: 08 June 2023 00:00
Orbit: 495 x 512 km, 53.2° (Epoch: 28 May)

Date Brightness Start Highest point End Pass type
(mag) Time Alt. Az. Time Alt. Az. Time Alt. Az.
29 May 2.3 05:40:58 10° SW 05:44:37 42° SSE 05:48:19 10° E visible
29 May 1.8 07:19:06 10° W 07:22:59 82° S 07:26:53 10° E visible
29 May 1.9 08:57:36 10° W 09:01:28 67° SSW 09:05:21 10° ESE visible
30 May 2.3 05:20:37 10° SW 05:24:17 43° SSE 05:27:59 10° E visible
30 May 1.8 06:58:46 10° W 07:02:38 82° S 07:06:33 10° E visible
30 May 1.9 08:37:17 10° W 08:41:07 66° SSW 08:45:00 10° ESE visible
30 May 3.0 10:16:02 10° W 10:19:16 25° SW 10:22:30 10° SSE visible
31 May 2.2 05:00:16 10° SW 05:03:56 43° SSE 05:07:38 10° E visible
31 May 1.8 06:38:25 10° W 06:42:17 82° S 06:46:12 10° E visible
31 May 1.9 08:16:56 10° W 08:20:47 65° SSW 08:24:39 10° ESE visible
31 May 3.0 09:55:42 10° W 09:58:54 25° SW 10:02:07 10° SSE visible
01 Jun 1.8 06:18:04 10° W 06:21:57 82° S 06:25:51 10° E visible
01 Jun 1.9 07:56:35 10° W 08:00:26 65° SSW 08:04:18 10° ESE visible
01 Jun 3.0 09:35:22 10° W 09:38:33 24° SW 09:41:43 10° SSE visible
02 Jun 1.8 05:57:43 10° W 06:01:36 83° S 06:05:30 10° E visible
02 Jun 1.9 07:36:14 10° W 07:40:05 64° SSW 07:43:57 10° ESE visible
02 Jun 3.1 09:15:01 10° W 09:18:11 24° SW 09:21:19 10° SSE visible
03 Jun 1.9 05:37:22 10° W 05:41:14 83° S 05:45:08 10° E visible
03 Jun 1.9 07:15:53 10° W 07:19:43 63° SSW 07:23:34 10° ESE visible
03 Jun 3.1 08:54:41 10° W 08:57:48 23° SW 08:59:41 16° S visible
04 Jun 1.9 05:17:00 10° W 05:20:52 83° S 05:24:46 10° E visible
04 Jun 1.9 06:55:31 10° W 06:59:21 62° SSW 07:03:11 10° ESE visible
04 Jun 3.1 08:34:19 10° W 08:37:25 23° SW 08:38:17 21° SSW visible
05 Jun 1.9 04:56:38 10° W 05:00:29 83° S 05:04:23 10° E visible
05 Jun 1.9 06:35:08 10° W 06:38:58 62° SSW 06:42:49 10° ESE visible
05 Jun 3.2 08:13:58 10° W 08:17:02 22° SW 08:17:32 22° SSW visible
06 Jun 1.9 06:14:45 10° W 06:18:35 61° SSW 06:22:25 10° ESE visible
06 Jun 3.2 07:53:36 10° W 07:56:38 22° SW 07:57:03 21° SSW visible
07 Jun 2.0 05:54:22 10° W 05:58:11 60° SSW 06:02:01 10° ESE visible
07 Jun 3.3 07:33:14 10° W 07:36:14 21° SW 07:36:46 21° SSW visible
